Powrót do katalogu

STARLINK-11666

AktywnyŁącznośćVLEO
NORAD 63667·PAYLOAD·🇺🇸 United States

Wystrzelony Apr 28, 2025 z Cape Canaveral Space Force Station

Loading…

Następne Przeloty (najbliższe 24 godziny)

TLE

ŚwieżeSource: CelesTrak SupGP

Epoka: Sep 15, 2026, 03:04 UTC

1 63667C 25085D   26258.12826389 -.00070494  00000+0 -54746-3 0  2582
2 63667  43.0006 216.9344 0001491 262.9979  11.5227 15.70876564    19

Śledź STARLINK-11666 w czasie rzeczywistym z AllMySat

Download on the App Store